Voltar ao catálogo

FREGAT R/B

AtivoHEO
NORAD 40002·ROCKET BODY·🇷🇺 Russia

Lançado Jun 14, 2014 de Plesetsk Cosmodrome

Loading…

Próximas Passagens (próximas 24 horas)

TLE

AtualizadoSource: Space-Track

Época: Sep 13, 2026, 09:38 UTC

1 40002U 14032B   26256.40188353 -.00000059  00000-0  00000+0 0  9993
2 40002  65.3787 317.0536 0078309  84.9503 276.0170  2.09160880 93576

Acompanhe FREGAT R/B em tempo real com AllMySat

Download on the App Store